Location: Kalama
(46.0086°N, 122.8433°W)
Time: 00:42:19
(UTC-07:00)

SO-50 - Visible Passes

Search period start: 14 May 2021 00:00
Search period end: 24 May 2021 00:00
Orbit: 617 x 668 km, 64.6° (Epoch: 13 May)

Date Brightness Start Highest point End Pass type
(mag) Time Alt. Az. Time Alt. Az. Time Alt. Az.
14 May ? 00:14:42 10° NNW 00:18:55 34° NE 00:20:25 27° E visible
14 May ? 01:55:07 10° NW 01:58:00 30° W 01:58:00 30° W visible
14 May ? 22:59:54 10° N 23:02:44 16° NNE 23:05:34 10° ENE visible
15 May ? 00:39:24 10° NNW 00:44:00 68° NE 00:44:15 66° ENE visible
15 May ? 02:20:57 10° WNW 02:21:51 13° W 02:21:51 13° W visible
15 May ? 23:24:15 10° NNW 23:28:08 26° NE 23:30:33 17° E visible
16 May ? 01:04:21 10° NW 01:08:10 49° W 01:08:10 49° W visible
16 May ? 22:09:38 10° N 22:11:48 13° NNE 22:13:58 10° NE visible
16 May ? 23:48:50 10° NNW 23:53:19 49° NE 23:54:30 39° E visible
17 May ? 01:29:46 10° WNW 01:32:06 21° W 01:32:06 21° W visible
17 May ? 22:33:50 10° NNW 22:37:18 21° NE 22:40:48 10° E visible
18 May ? 00:13:39 10° NW 00:18:17 80° SW 00:18:30 77° SSW visible
18 May ? 21:19:38 10° N 21:20:50 11° NNE 21:22:03 10° NE visible
18 May ? 22:58:20 10° NNW 23:02:36 36° NE 23:04:56 22° E visible
19 May ? 00:38:49 10° NW 00:42:32 34° WSW 00:42:32 34° WSW visible
19 May ? 21:43:28 10° N 21:46:26 17° NNE 21:49:24 10° ENE visible
19 May ? 23:23:02 10° NNW 23:27:39 73° NE 23:29:00 45° ESE visible
20 May ? 01:04:46 10° WNW 01:06:36 15° W 01:06:36 15° W visible
20 May ? 22:07:52 10° NNW 22:11:49 27° NE 22:15:30 11° E visible
20 May ? 23:48:01 10° NW 23:52:30 51° WSW 23:53:06 47° SSW visible
21 May ? 22:32:28 10° NNW 22:36:59 52° NE 22:39:39 23° ESE visible
22 May ? 00:13:29 10° WNW 00:17:07 23° WSW 00:17:15 23° WSW visible
22 May ? 21:17:26 10° NNW 21:21:00 22° NE 21:24:35 10° E visible
22 May ? 22:57:18 10° NW 23:01:55 74° SW 23:03:50 35° SSE visible
23 May ? 21:41:57 10° NNW 21:46:15 38° NE 21:50:27 11° ESE visible
23 May ? 23:22:30 10° NW 23:26:39 33° WSW 23:28:04 27° SSW visible
